Weather reports worldwide

Advertisment
Berus, Germany (10704): temperature & dewpoint: 20.03.2019 08:00:00 - 26.03.2019 08:00:00 (CET)Berus, Germany (10704): temperature 5cm & temperature -5cm: 20.03.2019 08:00:00 - 26.03.2019 08:00:00 (CET)Berus, Germany (10704): temperature -20cm & temperature -100cm: 20.03.2019 08:00:00 - 26.03.2019 08:00:00 (CET)Berus, Germany (10704): wind speed & gusts: 20.03.2019 08:00:00 - 26.03.2019 08:00:00 (CET)Berus, Germany (10704): wind direction: 20.03.2019 08:00:00 - 26.03.2019 08:00:00 (CET)Berus, Germany (10704): reduced air pressure: 20.03.2019 08:00:00 - 26.03.2019 08:00:00 (CET)Berus, Germany (10704): visibility: 20.03.2019 08:00:00 - 26.03.2019 08:00:00 (CET)Berus, Germany (10704): sunshine duration: 20.03.2019 08:00:00 - 26.03.2019 08:00:00 (CET)Berus, Germany (10704): precipitation: 20.03.2019 08:00:00 - 26.03.2019 08:00:00 (CET)
Date & Time tt [°C] td [°C] tt 5cm [°C] tt -5cm [°C] tt -20cm [°C] tt -100cm [°C] ff [km/h] ff [kn] fx [km/h] fx [kn] dd ppp [hPa] vv [km] sd [min] rr [mm]
26.03.2019 08:00:00 4,5 -1,2 4,8 2,6 6,1 7,3 15 8 27 15 N 1031,7 42 60 0,0
26.03.2019 07:00:00 2,7 -0,7 1,1 2,0 6,3 7,3 17 9 26 14 N 1031,6 31 3 0,0
26.03.2019 06:00:00 2,7 -0,4 0,7 2,5 6,5 7,3 13 7 24 13 N 1031,3 33 0 0,0
26.03.2019 05:00:00 3,5 0,0 2,8 3,3 6,6 7,3 14 8 23 13 N 1031,0 35 0 0,0
26.03.2019 04:00:00 4,0 0,2 3,5 4,0 6,8 7,3 14 8 27 14 N 1030,5 38 0 0,0
26.03.2019 03:00:00 4,1 -0,2 3,5 4,0 6,9 7,3 16 9 28 15 N 1030,3 43 0 0,0
26.03.2019 02:00:00 3,9 -0,3 2,9 4,1 7,1 7,3 10 6 27 15 N 1030,0 49 0 0,0
26.03.2019 01:00:00 4,5 -0,4 3,7 3,8 7,3 7,3 19 11 43 23 NNE 1029,6 46 0 0,0
26.03.2019 00:00:00 4,4 0,0 3,0 3,7 7,6 7,3 16 8 29 16 NNE 1029,2 43 0 0,0
25.03.2019 23:00:00 3,9 0,5 2,1 4,4 7,8 7,3 16 8 41 22 N 1028,7 41 0 0,0
25.03.2019 22:00:00 4,8 0,7 4,1 5,3 8,1 7,3 13 7 32 18 N 1028,0 46 0 0,0
25.03.2019 21:00:00 5,3 0,7 4,5 5,5 8,3 7,3 17 9 34 18 N 1027,2 46 0 0,0
25.03.2019 20:00:00 5,0 0,7 3,4 5,5 8,6 7,3 14 7 24 13 NNW 1026,6 48 0 0,0
25.03.2019 19:00:00 4,5 1,4 2,8 6,5 8,9 7,3 11 6 24 13 WNW 1026,0 52 38 0,0
25.03.2019 18:00:00 4,5 2,2 3,8 8,7 8,9 7,3 19 11 45 25 NNW 1026,0 26 15 0,2
25.03.2019 17:00:00 5,4 0,6 5,2 10,1 8,9 7,3 23 12 51 28 NNW 1025,4 55 8 0,1
25.03.2019 16:00:00 7,3 -0,8 8,2 13,3 8,6 7,2 22 12 40 22 NNW 1025,0 56 49 0,0
25.03.2019 15:00:00 5,7 3,1 8,2 12,6 8,2 7,2 11 6 56 30 NNW 1025,4 43 27 0,2
25.03.2019 14:00:00 7,9 -2,8 10,1 14,6 7,8 7,2 22 12 43 23 NW 1024,5 51 48 0,0
25.03.2019 13:00:00 7,4 -0,8 9,0 12,7 7,2 7,2 24 13 48 26 NW 1024,7 47 32 0,0
25.03.2019 12:00:00 7,1 -0,9 9,5 12,7 6,7 7,2 19 11 46 25 WNW 1024,8 36 48 0,0
25.03.2019 11:00:00 7,5 -0,4 11,9 10,3 6,3 7,2 19 10 41 22 WNW 1024,8 41 50 0,0
25.03.2019 10:00:00 6,0 0,4 9,4 7,1 6,2 7,2 17 9 34 18 W 1024,8 32 28 0,0
25.03.2019 09:00:00 3,6 -0,6 4,6 4,3 6,2 7,2 13 7 23 13 SW 1024,6 42 0 0,0
25.03.2019 08:00:00 2,7 -1,4 2,7 3,0 6,4 7,2 11 6 25 14 WSW 1024,6 38 0 0,0
25.03.2019 07:00:00 2,1 -2,0 1,0 1,9 6,7 7,2 17 9 24 13 WSW 1024,5 35 0 0,0
25.03.2019 06:00:00 1,5 -2,2 -0,4 1,6 7,0 7,2 13 7 19 10 WSW 1024,6 37 0 0,0
25.03.2019 05:00:00 2,0 -2,0 -0,2 1,9 7,3 7,2 14 8 20 11 W 1024,8 42 0 0,0
25.03.2019 04:00:00 2,6 -1,8 0,0 2,4 7,6 7,1 14 7 21 11 WNW 1024,9 43 0 0,0
25.03.2019 03:00:00 3,0 -1,5 0,5 2,8 8,0 7,1 14 7 21 11 WNW 1025,1 41 0 0,0
25.03.2019 02:00:00 3,6 -1,4 1,8 3,4 8,3 7,1 17 9 26 14 NNW 1025,3 52 0 0,0
25.03.2019 01:00:00 4,5 -0,8 1,7 4,0 8,7 7,1 10 6 18 10 NW 1025,4 39 0 0,0
25.03.2019 00:00:00 4,9 0,4 2,2 4,9 9,0 7,1 11 6 22 12 NNW 1025,5 38 0 0,0
24.03.2019 23:00:00 6,1 1,5 4,0 5,7 9,4 7,1 13 7 23 12 NNW 1025,5 31 0 0,0
24.03.2019 22:00:00 6,9 2,3 5,2 6,7 9,7 7,1 16 9 23 12 NNW 1025,5 21 0 0,0
24.03.2019 21:00:00 8,1 3,0 6,0 7,7 10,0 7,1 12 6 20 11 NW 1025,3 21 0 0,0
24.03.2019 20:00:00 8,8 3,2 7,2 9,4 10,2 7,1 10 5 15 8 NNW 1025,1 23 0 0,0
24.03.2019 19:00:00 9,7 3,6 8,8 10,6 10,3 7,1 9 5 26 14 N 1024,8 25 0 0,0
24.03.2019 18:00:00 10,5 3,6 10,3 11,8 10,4 7,1 14 7 29 15 N 1024,4 20 0 0,0
24.03.2019 17:00:00 11,3 4,2 11,6 13,8 10,2 7,0 18 10 30 16 NNW 1024,2 18 12 0,0
24.03.2019 16:00:00 12,7 3,6 15,0 16,4 9,8 7,0 11 6 26 14 NNW 1023,8 17 33 0,0
24.03.2019 15:00:00 12,7 4,2 14,8 16,7 9,3 7,0 12 7 24 13 N 1024,0 14 22 0,0
24.03.2019 14:00:00 12,2 5,2 15,2 16,4 8,7 7,0 10 5 19 10 WNW 1024,5 11 16 0,0
24.03.2019 13:00:00 12,1 4,7 16,9 17,2 8,1 7,0 6 3 17 9 NNW 1025,0 11 59 0,0
24.03.2019 12:00:00 10,8 4,5 15,6 14,6 7,5 7,0 5 3 11 6 NE 1025,3 11 20 0,0
24.03.2019 11:00:00 8,4 3,8 12,7 12,4 7,1 7,0 7 4 19 11 NE 1026,1 11 60 0,0
24.03.2019 10:00:00 7,1 3,2 10,0 9,3 6,9 7,0 14 8 21 12 NE 1026,5 10 60 0,0
24.03.2019 09:00:00 6,3 3,1 7,6 6,5 6,9 7,0 14 8 19 10 NNE 1026,8 9 5 0,0
24.03.2019 08:00:00 5,3 2,9 5,1 4,3 7,1 7,0 14 8 18 10 NNE 1026,8 7 0 0,0
24.03.2019 07:00:00 4,4 2,5 2,9 3,5 7,3 7,0 14 8 19 10 NE 1026,7 6 0 0,0
24.03.2019 06:00:00 4,3 2,4 2,8 3,7 7,6 6,9 17 9 22 12 NE 1026,4 5 0 0,0
24.03.2019 05:00:00 4,8 2,5 3,2 3,9 7,8 6,9 18 10 22 12 NE 1026,5 6 0 0,0
24.03.2019 04:00:00 4,6 2,4 2,9 4,1 8,1 6,9 15 8 20 11 NE 1027,0 4,8 0 0,0
24.03.2019 03:00:00 5,0 2,5 3,4 4,5 8,4 6,9 15 8 22 12 NE 1027,2 5 0 0,0
24.03.2019 02:00:00 5,0 2,4 3,5 4,9 8,8 6,9 16 9 21 11 NE 1027,8 4,9 0 0,0
24.03.2019 01:00:00 5,4 2,6 3,9 5,3 9,1 6,9 16 8 24 13 NE 1028,2 5 0 0,0
24.03.2019 00:00:00 5,7 2,5 4,5 5,8 9,5 6,9 21 11 30 16 NE 1028,5 6 0 0,0
23.03.2019 23:00:00 5,9 2,7 4,6 6,5 9,8 6,9 20 11 25 14 NE 1028,7 5 0 0,0
23.03.2019 22:00:00 6,8 3,0 5,5 7,4 10,2 6,9 18 10 32 17 NNE 1029,0 6 0 0,0
23.03.2019 21:00:00 8,0 3,6 6,9 8,4 10,6 6,9 25 14 38 21 NE 1028,7 7 0 0,0
23.03.2019 20:00:00 9,7 4,7 8,4 9,8 10,9 6,9 24 13 35 19 NNE 1028,2 9 0 0,0
23.03.2019 19:00:00 11,2 5,2 9,9 11,7 11,0 6,9 21 11 34 19 N 1027,3 12 15 0,0
23.03.2019 18:00:00 14,5 2,9 13,2 14,5 10,9 6,8 11 6 23 12 NW 1026,7 20 60 0,0
23.03.2019 17:00:00 15,6 3,0 16,1 17,3 10,6 6,8 9 5 22 12 NW 1026,4 20 60 0,0
23.03.2019 16:00:00 15,7 2,2 17,8 19,2 10,1 6,8 11 6 22 12 WNW 1026,6 24 60 0,0
23.03.2019 15:00:00 16,5 1,8 20,3 19,7 9,4 6,8 7 4 24 13 NNW 1026,9 22 60 0,0
23.03.2019 14:00:00 15,5 2,1 19,7 19,5 8,7 6,8 9 5 19 11 NW 1027,5 22 60 0,0
23.03.2019 13:00:00 14,5 2,5 18,9 18,2 7,9 6,8 10 5 21 11 N 1028,1 18 60 0,0
23.03.2019 12:00:00 13,3 3,3 18,5 16,4 7,2 6,8 8 5 16 8 N 1028,3 18 60 0,0
23.03.2019 11:00:00 12,1 3,5 16,2 13,4 6,7 6,8 8 4 18 10 NNW 1028,8 21 60 0,0
23.03.2019 10:00:00 11,2 2,7 15,0 10,2 6,3 6,8 8 5 16 9 NNW 1028,8 21 60 0,0
23.03.2019 09:00:00 8,2 1,4 11,6 6,3 6,3 6,8 5 3 11 6 W 1029,1 22 60 0,0
23.03.2019 08:00:00 7,0 0,5 6,7 3,4 6,5 6,8 6 3 10 6 W 1028,8 22 58 0,0
23.03.2019 07:00:00 6,1 0,0 0,8 2,9 6,7 6,8 5 3 13 7 W 1028,6 23 0 0,0
23.03.2019 06:00:00 7,4 -0,2 3,9 3,2 7,0 6,8 9 5 19 10 WNW 1028,2 25 0 0,0
23.03.2019 05:00:00 8,2 0,1 4,9 3,5 7,2 6,8 10 5 16 9 WNW 1028,3 25 0 0,0
23.03.2019 04:00:00 7,6 0,1 2,3 3,7 7,5 6,8 7 4 9 5 WSW 1028,4 27 0 0,0
23.03.2019 03:00:00 8,3 -0,3 1,7 4,2 7,8 6,8 5 3 12 6 W 1028,2 27 0 0,0
23.03.2019 02:00:00 9,6 -0,5 5,0 4,8 8,1 6,8 8 5 15 8 W 1028,2 32 0 0,0
23.03.2019 01:00:00 10,3 -0,8 5,9 5,2 8,4 6,8 9 5 14 8 W 1028,1 33 0 0,0
23.03.2019 00:00:00 11,0 -0,8 6,4 5,6 8,7 6,8 10 5 12 6 W 1028,1 32 0 0,0
22.03.2019 23:00:00 11,0 -1,0 6,4 6,1 9,1 6,7 10 5 13 7 W 1028,3 37 0 0,0
22.03.2019 22:00:00 11,0 -0,8 4,9 6,8 9,4 6,7 8 4 8 5 WSW 1028,3 35 0 0,0
22.03.2019 21:00:00 10,8 -0,2 4,5 7,9 9,8 6,7 8 4 14 7 SW 1028,1 37 0 0,0
22.03.2019 20:00:00 10,7 0,8 6,5 9,3 10,0 6,7 11 6 13 7 SW 1028,0 39 0 0,0
22.03.2019 19:00:00 12,7 1,4 10,0 11,4 10,1 6,7 12 6 21 11 SW 1027,6 38 36 0,0
22.03.2019 18:00:00 16,1 0,2 14,3 14,4 9,9 6,7 11 6 19 11 S 1027,0 44 60 0,0
22.03.2019 17:00:00 17,1 -0,5 17,5 17,1 9,5 6,7 11 6 18 10 S 1027,0 39 60 0,0
22.03.2019 16:00:00 17,6 -2,8 19,5 18,5 9,0 6,7 9 5 18 10 SE 1027,2 53 60 0,0
22.03.2019 15:00:00 17,7 -2,2 20,2 18,1 8,3 6,7 9 5 20 11 E 1027,7 40 60 0,0
22.03.2019 14:00:00 16,3 -4,1 19,2 17,7 7,6 6,7 10 5 20 11 E 1028,3 61 60 0,0
22.03.2019 13:00:00 15,4 -3,0 18,1 17,0 6,8 6,7 10 5 21 11 E 1028,9 51 60 0,0
22.03.2019 12:00:00 13,7 -0,5 16,8 15,4 6,1 6,7 10 6 18 10 ENE 1029,4 44 60 0,0
22.03.2019 11:00:00 11,6 -0,8 14,9 12,0 5,6 6,7 9 5 18 10 E 1030,2 47 60 0,0
22.03.2019 10:00:00 9,3 0,5 12,0 8,6 5,3 6,7 9 5 14 8 NE 1030,8 38 60 0,0
22.03.2019 09:00:00 7,9 -0,6 9,4 5,2 5,3 6,7 8 5 17 9 E 1031,0 31 60 0,0
22.03.2019 08:00:00 6,1 -0,7 6,2 2,4 5,5 6,7 10 5 18 10 NE 1031,2 32 56 0,0
22.03.2019 07:00:00 4,9 -1,2 1,8 1,8 5,7 6,7 11 6 19 10 NE 1031,2 40 0 0,0
22.03.2019 06:00:00 5,2 -1,3 1,7 2,0 5,9 6,7 12 7 18 10 NE 1030,9 35 0 0,0
22.03.2019 05:00:00 5,3 -1,5 2,6 2,3 6,1 6,7 14 8 19 10 NE 1030,9 34 0 0,0
22.03.2019 04:00:00 6,0 -1,5 2,9 2,5 6,4 6,7 16 8 19 11 NE 1030,9 45 0 0,0
22.03.2019 03:00:00 6,2 -1,5 2,9 2,8 6,7 6,7 15 8 19 10 NE 1031,0 37 0 0,0
22.03.2019 02:00:00 6,8 -1,5 3,6 3,2 6,9 6,7 15 8 18 10 NE 1031,3 40 0 0,0
22.03.2019 01:00:00 6,9 -2,1 4,1 3,7 7,2 6,7 16 8 22 12 NE 1031,7 40 0 0,0
22.03.2019 00:00:00 7,8 -2,4 4,8 4,2 7,5 6,7 16 9 21 12 NE 1031,9 52 0 0,0
21.03.2019 23:00:00 8,4 -2,6 5,7 4,7 7,9 6,7 16 9 20 11 NE 1032,1 59 0 0,0
21.03.2019 22:00:00 9,1 -2,7 6,2 5,4 8,2 6,7 16 9 22 12 NE 1032,1 57 0 0,0
21.03.2019 21:00:00 9,4 -2,7 7,0 6,3 8,5 6,7 16 9 24 13 NE 1031,9 60 0 0,0
21.03.2019 20:00:00 10,1 -2,6 7,7 7,3 8,7 6,7 18 10 31 17 NE 1031,8 62 0 0,0
21.03.2019 19:00:00 11,6 -2,5 9,5 9,0 8,9 6,7 21 12 33 18 NE 1031,3 58 35 0,0
21.03.2019 18:00:00 13,2 -1,9 11,6 11,6 8,8 6,6 22 12 33 18 ENE 1030,7 62 60 0,0
21.03.2019 17:00:00 14,4 -4,6 14,7 14,4 8,5 6,6 22 12 34 19 ENE 1030,5 69 60 0,0
21.03.2019 16:00:00 14,6 -3,9 16,1 15,9 8,0 6,6 23 12 37 20 NNE 1030,8 73 60 0,0
21.03.2019 15:00:00 14,3 -2,6 16,8 16,5 7,4 6,6 22 12 36 19 NE 1031,5 75 60 0,0
21.03.2019 14:00:00 14,0 -2,4 17,4 16,8 6,7 6,6 16 9 31 17 NE 1032,3 65 60 0,0
21.03.2019 13:00:00 12,6 -3,6 16,3 15,5 6,0 6,6 21 11 31 17 NE 1033,0 73 60 0,0
21.03.2019 12:00:00 12,2 -3,7 15,3 13,4 5,3 6,6 21 11 34 18 NE 1033,4 75 60 0,0
21.03.2019 11:00:00 10,7 -3,4 13,6 10,6 4,8 6,6 23 12 35 19 ENE 1033,9 55 60 0,0
21.03.2019 10:00:00 7,9 -1,0 11,0 7,4 4,5 6,6 17 9 24 13 NE 1034,6 54 60 0,0
21.03.2019 09:00:00 5,3 -2,4 7,8 3,8 4,5 6,6 15 8 21 12 NE 1035,1 42 60 0,0
21.03.2019 08:00:00 3,8 -2,5 4,2 1,2 4,7 6,6 16 9 21 11 NE 1035,3 30 55 0,0
21.03.2019 07:00:00 2,7 -3,0 0,7 0,7 4,9 6,6 14 7 18 10 NNE 1035,2 44 0 0,0
21.03.2019 06:00:00 3,0 -3,1 0,6 0,9 5,1 6,6 14 8 18 10 NNE 1035,2 43 0 0,0
21.03.2019 05:00:00 3,1 -2,5 1,1 1,2 5,4 6,6 14 8 18 10 NNE 1035,0 37 0 0,0
21.03.2019 04:00:00 4,0 -2,4 1,2 1,6 5,6 6,6 14 8 16 9 NNE 1034,7 21 0 0,0
21.03.2019 03:00:00 4,1 -2,2 0,9 1,9 5,9 6,6 12 6 15 8 NNE 1034,8 42 0 0,0
21.03.2019 02:00:00 4,6 -2,2 2,0 2,3 6,2 6,6 13 7 16 9 NNE 1035,2 29 0 0,0
21.03.2019 01:00:00 5,2 -1,8 2,3 2,7 6,5 6,6 12 7 14 8 NNE 1035,1 44 0 0,0
21.03.2019 00:00:00 5,8 -1,6 2,9 3,2 6,8 6,6 11 6 15 8 NNE 1035,4 36 0 0,0
20.03.2019 23:00:00 6,5 -2,4 2,8 3,7 7,1 6,6 9 5 12 7 NNE 1035,4 52 0 0,0
20.03.2019 22:00:00 7,4 -3,3 2,3 4,5 7,5 6,6 7 4 13 7 ENE 1035,2 70 0 0,0
20.03.2019 21:00:00 8,2 -3,5 3,7 5,4 7,8 6,6 9 5 16 9 ENE 1034,7 62 0 0,0
20.03.2019 20:00:00 8,9 -2,4 3,1 6,6 8,0 6,6 7 4 11 6 NE 1034,3 62 0 0,0
20.03.2019 19:00:00 9,4 -2,7 3,8 8,3 8,1 6,6 5 3 13 7 ENE 1033,9 65 30 0,0
20.03.2019 18:00:00 10,9 -3,9 8,9 10,9 8,1 6,6 6 4 16 9 NE 1033,8 67 60 0,0
20.03.2019 17:00:00 11,7 -4,7 12,1 13,5 7,8 6,6 9 5 18 10 NE 1033,4 75 60 0,0
20.03.2019 16:00:00 11,4 -4,0 12,7 14,3 7,4 6,6 11 6 19 10 NNE 1033,6 60 51 0,0
20.03.2019 15:00:00 11,1 -4,4 13,1 15,4 6,8 6,6 11 6 22 12 NE 1033,7 50 60 0,0
20.03.2019 14:00:00 10,8 -3,3 14,1 15,4 6,1 6,6 10 6 20 11 NNE 1034,0 56 60 0,0
20.03.2019 13:00:00 10,3 -2,8 14,0 15,2 5,3 6,6 9 5 18 10 ENE 1034,7 42 60 0,0
20.03.2019 12:00:00 8,7 -4,1 13,2 13,4 4,6 6,6 8 5 18 10 ENE 1035,4 60 60 0,0
20.03.2019 11:00:00 8,0 -2,9 12,2 10,1 4,1 6,6 5 3 10 5 ENE 1035,4 69 60 0,0
20.03.2019 10:00:00 6,0 -2,5 9,4 5,7 3,9 6,6 5 3 10 5 ENE 1035,6 42 60 0,0
20.03.2019 09:00:00 4,2 -2,1 6,0 1,1 4,0 6,6 5 3 8 5 NE 1035,3 26 60 0,0
20.03.2019 08:00:00 2,0 -1,8 2,1 0,7 4,2 6,6 6 4 10 5 NNE 1035,2 8 45 0,0

tt = temperature
td = dewpoint
tt 5cm = temperature 5cm
tt -5cm = temperature -5cm
tt -20cm = temperature -20cm
tt -100cm = temperature -100cm
ff = wind speed
fx = gusts
dd = wind direction
ppp = reduced air pressure
vv = visibility
sd = sunshine duration
rr = precipitation

Next stations